Regional Weather Roundup
Issued by NWS

Home | Current Version | Previous Version | Text Only | Print | Product List | Glossary On
Versions: 1 2 3 4 5 6 7 8 9 10 11 12 13 14 15 16 17 18 19 20 21 22 23 24 25 26 27 28 29 30 31 32 33 34 35 36 37 38 39 40 41 42 43 44 45 46 47 48 49 50
000
ASUS45 KBOU 300307
RWRCO

WEATHER ROUNDUP FOR COLORADO
NATIONAL WEATHER SERVICE DENVER/BOULDER CO
900 PM MDT FRI JUL 29 2016

NOTE: "FAIR" INDICATES FEW OR NO CLOUDS BELOW 12000 FEET WITH NO
SIGNIFICANT WEATHER AND/OR OBSTRUCTIONS TO VISIBILITY.

COZ001>005-013-030-031-300400-
...NORTHWEST COLORADO...

CITY           SKY/WX    TMP DP  RH WIND       PRES   REMARKS
CRAIG          FAIR      74  36  25 VRB5      30.07S
HAYDEN         FAIR      73  36  25 SE6       30.11S
MEEKER         FAIR      74  40  29 N5        30.10R
MOUNT WERNER   NOT AVBL
STEAMBOAT SPGS FAIR      73  41  31 E5        30.12F
WALDEN         MOCLDY    70  30  23 W3        30.25R
$$

COZ006>008-011-300400-
...WEST CENTRAL VALLEYS...

CITY           SKY/WX    TMP DP  RH WIND       PRES   REMARKS
GRAND JUNCTION FAIR      84  41  21 NW3       29.96R
MONTROSE       FAIR      80  39  23 W6        30.08R
EAGLE          FAIR      82  32  16 SE3       30.13R
RIFLE          FAIR      83  34  17 E5        30.02R
DELTA          NOT AVBL
NUCLA          NOT AVBL
$$

COZ017>023-064>068-300400-
...SOUTHWEST COLORADO...

CITY           SKY/WX    TMP DP  RH WIND       PRES   REMARKS
DURANGO        FAIR      80  32  17 N8        30.13R
CORTEZ         FAIR      74  40  29 E8        30.05R
PAGOSA SPRINGS FAIR      79  29  16 S6        30.25R
TELLURIDE      FAIR      70  31  23 SE5       30.40R
WOLF CREEK PAS MOCLDY    57  23  26 NE3       30.64S
$$

COZ009-010-012-014-032>034-037-058>063-300400-
...CENTRAL COLORADO...

CITY           SKY/WX    TMP DP  RH WIND       PRES   REMARKS
ASPEN          FAIR      65  40  39 S6        30.23R
BUENA VISTA    FAIR      71  49  46 S13G22    30.27R
COPPER MTN     FAIR      59  27  29 W9        30.62S
BERTHOUD PASS  CLOUDY    50  34  53 MISG      30.64S
COTTONWOOD PAS FAIR      70  34  26 CALM      30.43R
GUNNISON       FAIR      70  30  23 N10       30.26R
KREMMLING      FAIR      70  32  24 CALM      30.21R
LEADVILLE      FAIR      63  27  25 N12G21    30.42R
MONARCH PASS   FAIR      52  46  82 MISG      30.71S
SALIDA         FAIR      72  53  51 SE20G32   30.31R
SUNLIGHT       FAIR      61  34  36 MISG      30.53S
WILKERSON PASS FAIR      54  43  66 E3        30.58R
$$

COZ069>075-300400-
...SAN LUIS VALLEY/SANGRE DE CRISTO MOUNTAINS...

CITY           SKY/WX    TMP DP  RH WIND       PRES   REMARKS
ALAMOSA        FAIR      70  41  34 SE16G23   30.22R
LA VETA PASS   MOCLDY    54  50  87 NE12      30.48S
SAGUACHE       FAIR      72  37  28 NE6       30.25R
$$

COZ035-036-038>040-300400-
...NORTHERN COLORADO FRONT RANGE...

CITY           SKY/WX    TMP DP  RH WIND       PRES   REMARKS
DENVER INTL AP TSTM      75  55  49 SE20G31   30.10R
DMNS CITY PARK   N/A     76  55  48 SE5G17    30.10R
AURORA         PTCLDY    74  56  54 S21G32    30.11S
FRONT RANGE AP MOCLDY    75  57  53 SE17G25   30.12S
ERIE MUNI ARPT FAIR      80  53  39 SE23      30.06R
BOULDER MUN AP FAIR      72  55  56 N16       30.10R
CENTENNIAL     FAIR      72  55  55 S21G29    30.12R
BROOMFIELD     NOT AVBL
LONGMONT       NOT AVBL
$$

COZ041-046-047-076>085-087-088-300400-
...PIKES PEAK/PALMER DIVIDE AND SOUTHERN FOOTHILLS...

CITY           SKY/WX    TMP DP  RH WIND       PRES   REMARKS
COLO. SPRINGS  FAIR      69  57  65 SE7       30.22R
A. F. ACADEMY  FAIR      67  54  64 S9        30.22R
SCHRIEVER AFB  NOT AVBL
ELLICOTT       NOT AVBL
FALCON         NOT AVBL
FORT CARSON    NOT AVBL
LIMON          FAIR      67  59  75 SE8       30.17R
MONUMENT HILL  FAIR      63  54  72 S13       30.26R
TRINIDAD       NOT AVBL
$$

COZ042>045-048>051-090-091-300400-
...NORTHEAST COLORADO...

CITY           SKY/WX    TMP DP  RH WIND       PRES   REMARKS
GREELEY ARPT   FAIR      66  61  82 SE16      30.09S
AKRON          FAIR      69  59  70 SE12      30.12F
BURLINGTON     FAIR      69  61  75 SE10      30.12R
WRAY           FAIR      72  59  64 E7        30.08R
STERLING       NOT AVBL
HOLYOKE        NOT AVBL
FORT MORGAN    NOT AVBL
$$

COZ086-089-092>099-300400-
...SOUTHEAST COLORADO...

CITY           SKY/WX    TMP DP  RH WIND       PRES   REMARKS
PUEBLO         FAIR      79  61  53 E13       30.09R
LA JUNTA       FAIR      78  61  55 SE21      30.08R
LAMAR          FAIR      74  65  73 SE10      30.06R
SPRINGFIELD      N/A     68  62  81 SE6       30.11S
$$



USA.gov is the U.S. government's official web portal to all federal, state and local government web resources and services.